STARLINK-31903 (59845 NORAD) Tracking and Keplerian Element Data

This shows tracking and keplerian element data for the satellite.

Feedback or suggestion? Click here.




ElementValue
Catalog59845
NameSTARLINK-31903
Epoch Orbit374
Epoch Day160.16667824
Epoch Year2024
RAAN318.6309
Inclination43.0009
Eccentricity0.0001927
Argument of Perigee277.965
Mean Anonmoly87.2541
Mean Motion15.66669548
Decay Rate-0.01741571
L11 59845U 24097L 24160.16667824 -.01741571 00000+0 -18371-1 0 9994
L22 59845 43.0009 318.6309 0001927 277.9650 87.2541 15.66669548 3741



Live tracking and technical data element details for STARLINK-31903 (NORAD 59845). STARLINK-31903 can be tracked NOW for your location showing map with azimuth and elevation plus other details from your city location.







IsCatalogInMostPopularTable: catalog: 59845, numindb: 16
Update: records affected: 1



GetName: 59845 STARLINK-31903

Hit Count: updated at: Thu, 25 Jul 2024 00:32:15 GMT